Location: Sternwarte_Laufen
(47.9344°N, 12.9346°E)
Time: 16:37:18
(UTC+01:00)

ISS - Visible Passes

Search period start: 30 January 2023 00:00
Search period end: 09 February 2023 00:00
Orbit: 413 x 419 km, 51.6° (Epoch: 30 January)

Date Brightness Start Highest point End Pass type
(mag) Time Alt. Az. Time Alt. Az. Time Alt. Az.
30 Jan -3.9 18:32:18 10° WNW 18:35:41 82° NNE 18:37:03 33° ESE visible
30 Jan -0.4 20:09:27 10° W 20:09:57 13° W 20:09:57 13° W visible
31 Jan -3.6 17:43:37 10° WNW 17:46:58 62° NNE 17:50:19 10° E visible
31 Jan -2.3 19:20:31 10° WNW 19:23:35 33° SW 19:23:38 33° SW visible
01 Feb -3.0 18:31:41 10° WNW 18:34:58 51° SSW 18:37:25 16° SE visible
02 Feb -3.6 17:42:55 10° WNW 17:46:16 77° SSW 17:49:38 10° ESE visible
02 Feb -1.0 19:20:29 10° W 19:22:33 15° SW 19:24:18 11° S visible
03 Feb -1.4 18:31:13 10° W 18:33:58 24° SW 18:36:43 10° SSE visible
04 Feb -2.1 17:42:11 10° WNW 17:45:18 36° SW 17:48:25 10° SSE visible
05 Feb -0.3 18:32:02 10° WSW 18:32:40 10° SW 18:33:18 10° SW visible
